map of HUX home
Great Circle Mapper logo
HUX - Airport
Location
City:  Huatulco, Oaxaca, México
Near (Alt.):Santa Cruz
Name:Bahías de Huatulco International Airport
ICAO / IATA:MMBT / HUX

Details
Type:Airport (Aerodrome, Airfield)
Use:International (customs port of entry)
Latitude:15°46'31"N (15.775317)
Longitude:96°15'45"W (-96.262571)
Datum:WGS 1984
Elevation:464 ft (141 m)
Variation:3.98°E (WMM2015 magnetic declination)
-0.12° annual change
Runways:1
Longest:8858 × 148 ft (2700 × 45 m), paved

Time
Time Zone:UTC-6 (DST-5)
Local Time:

Weather
METAR:MMBT 291645Z 00000KT 10SM BKN200 34/25 A2993 RMK 8/001 HZY
TAF:MMBT 291723Z 2918/3018 12010KT P6SM SCT030 BKN120 BKN250
TEMPO 2922/3002 BKN025CB
FM300600 00000KT P6SM SCT020 BKN100
FM301700 18010KT P6SM SCT030 BKN080 BKN250

Related Locations
Nearby:
Farthest:CCK: 11535 mi / 18564 km
West Island (Pulau Panjang) [Cocos (Keeling) Islands], CC

Find:

   beyond  
but within

Other Information
Maps:
NOTAMs:
Links:
Sources:

  
flag of México   

Sectional Chart

Flight Planning
at skyvector.com

Satellite Image

Google Maps Satellite view

 

Copyright © 2004-2015 Karl L. Swartz. All rights reserved.
The Great Circle Mapper name and logo are trademarks of the Great Circle Mapper.
All other trademarks mentioned herein belong to their respective owners.
Please see credits for attibutions and further copyright information.

  Follow gcmap on Facebook Follow gcmap on Twitter Follow gcmap on Google+

hCard Microformat

Geo Microformat